{"data":{"norad_id":48224,"intl_designator":"2021-031Q","name":"ONEWEB-0202","alt_names":[],"object_type":"PAYLOAD","status":"ACTIVE","operator":null,"country":"UK","launch_date":"2021-04-25","launch_site_code":"VOSTO","launch_vehicle":null,"mission":null,"orbit_class":"UNKNOWN","rcs_meters":null,"size_class":null,"mass_kg":null,"dimensions":null,"purposes":["comms"],"wikipedia_slug":null,"has_3d_model":false,"image_url":null,"decayed_at":null,"tle_current":{"epoch":"2026-09-19T23:19:05.297376Z","epoch_age_seconds":63999,"freshness":"FRESH","line1":"1 48224U 21031Q   26262.97158909 -.00000111  00000+0 -33365-3 0  9990","line2":"2 48224  87.8899 270.8049 0001474  71.2120 288.9169 13.14504111260811","mean_motion":13.14504111,"eccentricity":0.0001474,"inclination_deg":87.8899,"raan_deg":270.8049,"arg_perigee_deg":71.212,"mean_anomaly_deg":288.9169,"bstar":-0.00033365,"rev_number":26081,"period_min":109.54701380922,"perigee_km":1204.6674420205,"apogee_km":1206.9031823181,"semimajor_km":7583.9223121693,"source":"CELESTRAK","updated_at":"2026-09-20T09:00:44.595048Z"}}}